Weather in Bogoslovka

Russia / Belgorod Oblast     51°07′10″N   37°30′34″E
temp.,
°C
wind,
m/s
gust,
m/s
humid.,
%
clouds,
%
prec.,
mm/h
press.,
hPa
HPBL,
m
17 april, sat
sat1700:00+7se228069 0.0 101823
03:00+6w1183100 0.1 101823
06:00+6nne2389100 0.3 1018143
09:00+9s227481 0.6 1018458
12:00+11ssw445799 1.3 10181396
15:00+13ssw554092 1.6 10172323
18:00+10sw565662 0.1 10171163
21:00+7wsw367278 0.1 1019157
18 april, sun
sun1800:00+6sw478498 0.0 1019312
03:00+6ssw468696 0.1 1019574
06:00+6sw3576100 0.0 1018304
09:00+8ssw5568100 0.2 1019974
12:00+10sw6759100 0.5 10181405
15:00+10sw3466100 0.9 10181197
18:00+7nne3489100 2.5 1018318
21:00+7e3494100 5.3 1018182
19 april, mon
mon1900:00+7sse2494100 5.9 1017238
03:00+7wnw1190100 7.3 101772
06:00+6n229488 0.6 101689
09:00+7nw3290100 0.6 1017269
12:00+10w347365 0.1 1016872
15:00+11wsw335619 0.2 10161265
18:00+11wnw336098 0.0 1015777
21:00+7nw227022 0.0 101611
20 april, tue
tue2000:00+6ne22755 0.0 101513
03:00+7ene3482100 0.0 101488
06:00+7ene398491 0.0 1013231
09:00+10e71280100 0.1 1012705
12:00+10ene81385100 0.1 10091088
15:00+8ene101894100 7.9 1003884
18:00+9e102195100 14.1 9971341
21:00+10s61590100 19.3 997694
21 april, wed
wed2100:00+9sse9159092 0.5 998852
03:00+9s91585100 0.6 998891
06:00+5sw71295100 0.9 1002910
09:00+6wsw71386100 1.0 10061288
12:00+8wsw81379100 0.3 10101252
15:00+10wsw71067100 0.6 10131416
18:00+9sw5777100 0.3 1016741
21:00+7sw4783100 0.3 1018347